Tracking 19176 objects as of 25-May-2018
HD Live streaming from Space Station
objects crossing your sky now

MOLNIYA 1-71

Track MOLNIYA 1-71 now!
MOLNIYA 1-71 is classified as:


NORAD ID: 18946
Int'l Code: 1988-017A
Perigee: 1,567.0 km
Apogee: 38,800.6 km
Inclination: 63.8 °
Period: 717.8 minutes
Semi major axis: 26554 km
RCS: 20.0475 m2 (large)
Launch date: March 11, 1988
Source: Commonwealth of Independent States (former USSR) (CIS)
Launch site: TYURATAM MISSILE AND SPACE COMPLEX (TTMTR)
aabbcc
Your satellite tracking list
Your tracking list is empty




NASA's NSSDC Master Catalog

Two Line Element Set (TLE):
1 18946U 88017A   18144.53515163 +.00000274 +00000-0 +18455-1 0  9996
2 18946 063.8169 290.7470 7010723 266.4993 067.2861 02.00626777221261
Source of the keplerian elements: AFSPC